Regional Weather Roundup
Issued by NWS Memphis, TN

Home | Current Version | Previous Version | Text Only | Print | Product List | Glossary On
Versions: 1 2 3 4 5 6 7 8 9 10 11 12 13 14 15 16 17 18 19 20 21 22 23 24 25 26 27 28 29 30 31 32 33 34 35 36 37 38 39 40 41 42 43 44 45 46 47 48 49 50
000
ASUS44 KMEG 190500
RWRMEG
MEMPHIS CWA HOURLY WEATHER ROUNDUP
NATIONAL WEATHER SERVICE MEMPHIS TN
1100 PM CST SUN NOV 18 2018

...WEST TENNESSEE...

CITY           SKY/WX    TMP DP  RH WIND       PRES   REMARKS
MEMPHIS INTL   CLOUDY    53  49  86 NW5       30.12F
NWS MEMPHIS      N/A     52 N/A N/A MISG        N/A
JACKSON        MOCLDY    47  45  93 CALM      30.11F
DYERSBURG      CLOUDY    44  42  93 CALM      30.13F FOG


...EASTERN ARKANSAS...

CITY           SKY/WX    TMP DP  RH WIND       PRES   REMARKS
JONESBORO      CLOUDY    45  44  97 CALM      30.14F FOG
WEST MEMPHIS   CLOUDY    50  47  89 NW5       30.12S FOG
BATESVILLE     LGT RAIN  43  42  97 NW3       30.15F FOG
NEWPORT        CLOUDY    44  43  96 N5        30.15F FOG
WALNUT RIDGE   CLOUDY    43  42  97 N5        30.15F FOG
BLYTHEVILLE    CLOUDY    45  40  82 N6        30.13F HAZE
SEARCY         LGT RAIN  45  45 100 NW5       30.16S FOG
STUTTGART      CLOUDY    48  47  96 W10       30.15S FOG
PINE BLUFF     CLOUDY    50  49  96 W9        30.16S FOG
MONTICELLO     CLOUDY    51  49  92 W8        30.16S


...NORTH MISSISSIPPI...

CITY           SKY/WX    TMP DP  RH WIND       PRES   REMARKS
TUPELO         FAIR      49  44  83 CALM      30.15S
OXFORD         MOCLDY    54  46  76 S5        30.14F
OLIVE BRANCH   MOCLDY    52  50  93 CALM      30.11F
CLARKSDALE     CLOUDY    57  57 100 CALM      30.14F
GREENWOOD      FAIR      51  48  89 CALM      30.14F
COLUMBUS       FAIR      42  41  93 CALM      30.15F
STARKVILLE     FAIR      43  41  93 CALM      30.17F
GOLDEN TRIANGL FAIR      48  44  86 S3        30.17F


...SOUTHEAST MISSOURI...

CITY           SKY/WX    TMP DP  RH WIND       PRES   REMARKS
KENNETT        CLOUDY    43  43 100 N7        30.12F FOG
MALDEN         DRIZZLE   43  39  87 N6        30.16S
WEST PLAINS    CLOUDY    36  35  96 N3        30.14F FOG
POPLAR BLUFF   CLOUDY    41  40  96 NE5       30.15F FOG
CAPE GIRARDEAU LGT RAIN  40  38  93 N6        30.15F FOG


...NORTHWEST ALABAMA...

CITY           SKY/WX    TMP DP  RH WIND       PRES   REMARKS
MUSCLE SHOALS  FAIR      46  43  89 SE3       30.16F


...MIDDLE TENNESSEE...

CITY           SKY/WX    TMP DP  RH WIND       PRES   REMARKS
NASHVILLE      CLOUDY    49  40  71 S3        30.14F
CLARKSVILLE    CLOUDY    43  39  86 SE3       30.13F FOG


...WESTERN KENTUCKY...

CITY           SKY/WX    TMP DP  RH WIND       PRES   REMARKS
PADUCAH        CLOUDY    43  39  86 NE3       30.12F FOG


...CENTRAL ARKANSAS...

CITY           SKY/WX    TMP DP  RH WIND       PRES   REMARKS
LITTLE ROCK    DRIZZLE   46  44  93 NW8       30.16F FOG


SKY/WX REPORTED AS FAIR MEANS FEW OR NO CLOUDS BELOW
12 THOUSAND FEET.




USA.gov is the U.S. government's official web portal to all federal, state and local government web resources and services.